User: anonymous   Login
Location: Gipe Farm
(40.9466°N, 95.5370°W)
Time: 00:01:54
(UTC-05:00)
Language:

Cosmos 1842 - Orbit

View from above orbital plane
View from above orbital plane
View from above satellite
View from above satellite

Ground track
Ground track

The orbit data is extracted from the following two-line orbital elements,

1 17911U 87038A   15184.64830401  .00001974  00000-0  12189-3 0  9995
2 17911 082.5105 171.4798 0011167 179.1106 181.0145 15.09310799533948
Epoch (UTC): 03 July 2015 15:33:33
Eccentricity: 0.0011167
inclination: 82.5105°
perigee height: 530 km
apogee height: 546 km
right ascension of ascending node: 171.4798°
argument of perigee: 179.1106°
revolutions per day: 15.09310799
mean anomaly at epoch: 181.0145°
orbit number at epoch: 53394

The dashed part of the orbit path shows where the satellite is in the earth's shadow,  

DLR